STARLINK-32159 (60293 NORAD) Tracking and Keplerian Element Data

This shows tracking and keplerian element data for the satellite.

Feedback or suggestion? Click here.




ElementValue
Catalog60293
NameSTARLINK-32159
Epoch Orbit1302
Epoch Day286.70157354
Epoch Year2024
RAAN274.9224
Inclination53.1596
Eccentricity0.0001524
Argument of Perigee86.4068
Mean Anonmoly273.7107
Mean Motion15.30207141
Decay Rate-4.34E-06
L11 60293U 24132R 24286.70157354 -.00000434 00000+0 -25271-5 0 9990
L22 60293 53.1596 274.9224 0001524 86.4068 273.7107 15.30207141 13022



Live tracking and technical data element details for STARLINK-32159 (NORAD 60293). STARLINK-32159 can be tracked NOW for your location showing map with azimuth and elevation plus other details from your city location.







IsCatalogInMostPopularTable: catalog: 60293, numindb: 12
Update: records affected: 1



GetName: 60293 STARLINK-32159

Hit Count: updated at: Thu, 23 Jan 2025 18:19:23 GMT